Satellite-Ground Cal/Val Region Overpasses Predictions

Prediction of Satellite NPP Overpassing Cal/Val Region: PacNW

Region Location: (Latitude: 10.00, Longitude: 139.50) to (Latitude: 22.70, Longitude: 165.60).

Table of predicted overpasses for the next 14.0 days since TLE Epoch: 7/1/2017
Interval Starting Time Starting Location Ending Time Ending Location
1 07/02/2017 02:10:07 ( 19.89, 165.59) 07/02/2017 02:10:54 ( 22.65, 164.90)
2 07/02/2017 03:48:49 ( 10.03, 142.53) 07/02/2017 03:52:24 ( 22.65, 139.53)
3 07/02/2017 14:39:12 ( 22.67, 165.15) 07/02/2017 14:42:47 ( 10.05, 162.14)
4 07/02/2017 16:20:42 ( 22.66, 139.77) 07/02/2017 16:21:00 ( 21.61, 139.51)
5 07/03/2017 03:29:47 ( 10.01, 147.30) 07/03/2017 03:33:23 ( 22.69, 144.28)
6 07/03/2017 16:01:40 ( 22.69, 144.54) 07/03/2017 16:05:16 ( 10.00, 141.52)
7 07/04/2017 03:10:45 ( 10.04, 152.05) 07/04/2017 03:14:20 ( 22.67, 149.04)
8 07/04/2017 15:42:38 ( 22.65, 149.29) 07/04/2017 15:46:13 ( 10.03, 146.28)
9 07/05/2017 02:51:43 ( 10.02, 156.81) 07/05/2017 02:55:18 ( 22.64, 153.81)
10 07/05/2017 15:23:36 ( 22.67, 154.05) 07/05/2017 15:27:11 ( 10.05, 151.05)
11 07/06/2017 02:32:42 ( 10.06, 161.56) 07/06/2017 02:36:17 ( 22.68, 158.56)
12 07/06/2017 15:04:33 ( 22.69, 158.82) 07/06/2017 15:08:09 ( 10.02, 155.80)
13 07/07/2017 02:14:33 ( 13.21, 165.60) 07/07/2017 02:17:14 ( 22.66, 163.32)
14 07/07/2017 03:55:09 ( 10.04, 140.95) 07/07/2017 03:56:55 ( 16.27, 139.51)
15 07/07/2017 14:45:32 ( 22.66, 163.57) 07/07/2017 14:49:07 ( 10.04, 160.56)
16 07/08/2017 03:36:07 ( 10.02, 145.72) 07/08/2017 03:39:42 ( 22.64, 142.71)
17 07/08/2017 14:29:44 ( 11.23, 165.60) 07/08/2017 14:30:05 ( 10.00, 165.31)
18 07/08/2017 16:07:59 ( 22.67, 142.96) 07/08/2017 16:11:34 ( 10.05, 139.95)
19 07/09/2017 03:17:05 ( 10.06, 150.47) 07/09/2017 03:20:40 ( 22.68, 147.46)
20 07/09/2017 15:48:57 ( 22.69, 147.72) 07/09/2017 15:52:33 ( 10.02, 144.70)
21 07/10/2017 02:58:03 ( 10.04, 155.23) 07/10/2017 03:01:38 ( 22.66, 152.23)
22 07/10/2017 15:29:55 ( 22.66, 152.47) 07/10/2017 15:33:30 ( 10.04, 149.47)
23 07/11/2017 02:39:00 ( 10.02, 160.00) 07/11/2017 02:42:36 ( 22.70, 156.98)
24 07/11/2017 15:10:53 ( 22.68, 157.24) 07/11/2017 15:14:29 ( 10.00, 154.22)
25 07/12/2017 02:19:59 ( 10.05, 164.75) 07/12/2017 02:23:34 ( 22.68, 161.74)
26 07/12/2017 14:51:50 ( 22.70, 162.00) 07/12/2017 14:55:26 ( 10.02, 158.98)
27 07/13/2017 03:42:26 ( 10.04, 144.13) 07/13/2017 03:46:01 ( 22.67, 141.13)
28 07/13/2017 14:34:09 ( 17.97, 165.60) 07/13/2017 14:36:24 ( 10.04, 163.75)
29 07/13/2017 16:14:19 ( 22.65, 141.37) 07/13/2017 16:16:30 ( 14.97, 139.51)
30 07/14/2017 03:23:24 ( 10.02, 148.90) 07/14/2017 03:26:59 ( 22.65, 145.89)
31 07/14/2017 15:55:17 ( 22.67, 146.14) 07/14/2017 15:58:52 ( 10.06, 143.13)
32 07/15/2017 03:04:21 ( 10.00, 153.66) 07/15/2017 03:07:57 ( 22.69, 150.64)


NCC Satellite Cal/Val Overpasses Prediction Service
